Regional Weather Roundup
Issued by NWS

Home | Current Version | Previous Version | Graphics & Text | Print | Product List | Glossary On
Versions: 1 2 3 4 5 6 7 8 9 10 11 12 13 14 15 16 17 18 19 20 21 22 23 24 25 26 27 28 29 30 31 32 33 34 35 36 37 38 39 40 41 42 43 44 45 46 47 48 49 50
000
ASUS43 KFSD 120502
RWRSD

WEATHER ROUNDUP FOR SOUTH DAKOTA
NATIONAL WEATHER SERVICE SIOUX FALLS SD
1100 PM CST MON DEC 11 2017

NOTE: "FAIR" INDICATES FEW OR NO CLOUDS BELOW 12,000 FEET WITH NO
SIGNIFICANT WEATHER AND/OR OBSTRUCTIONS TO VISIBILITY.


SDZ001>005-009-010-012>017-120600-
NORTHWEST AND NORTH CENTRAL SOUTH DAKOTA

CITY           SKY/WX    TMP DP  RH WIND       PRES   REMARKS
BUFFALO          N/A     25  21  85 NW8       30.27F WCI  16
FAITH            N/A     35  26  69 NW10      30.34F WCI  27
MOBRIDGE       CLEAR     20  17  88 CALM      30.31S
$$

SDZ012>016-024>037-041>051-057-063-072>074-120600-
SOUTHWEST AND SOUTH CENTRAL SOUTH DAKOTA

CITY           SKY/WX    TMP DP  RH WIND       PRES   REMARKS
RAPID CTY ARPT CLOUDY    18  15  88 W3        30.38F
PIERRE         CLOUDY    32  29  88 W5        30.36F WCI  27
CUSTER         CLOUDY    26   0  32 W6        30.32F WCI  19
ELLSWORTH AFB  CLOUDY    19  16  88 W6        30.36F WCI  11
PHILIP         CLOUDY    35  27  72 W7        30.38F WCI  29
PINE RIDGE     CLOUDY    20  18  92 CALM      30.40R
SPEARFISH      FAIR      30  12  47 W7        30.35F WCI  23
WINNER         CLOUDY    33  29  85 NW5       30.37S WCI  29
$$

SDZ004>011-016>023-039-040-120600-
NORTHEAST SOUTH DAKOTA

CITY           SKY/WX    TMP DP  RH WIND       PRES   REMARKS
ABERDEEN       CLOUDY     7   6  96 SW7       30.36S WCI  -5
WATERTOWN      CLEAR     13  11  92 NW7       30.30F WCI   3
BROOKINGS      CLEAR     14  11  87 NW8       30.33S WCI   3
SISSETON         N/A     11   8  88 NW7       30.33F WCI   0
$$

SDZ017-020-022-023-036>040-048>070-120600-
SOUTHEAST SOUTH DAKOTA

CITY           SKY/WX    TMP DP  RH WIND       PRES   REMARKS
SIOUX FALLS    PTCLDY    17  14  88 NW7       30.34S WCI   8
HURON          CLEAR     14  12  92 W7        30.39R WCI   4
CHAMBERLAIN    CLOUDY    20  19  96 CALM      30.38S
MITCHELL       CLEAR     19  16  88 W7        30.40S WCI  10
YANKTON        CLEAR     18  15  88 NW9       30.38F WCI   7
$$

ABBREVIATIONS USED IN REMARKS
   TC - TEMPERATURE IN CELSIUS
  WCI - WIND CHILL INDEX
   HX - HEAT INDEX
  VSB - VISIBILITY





USA.gov is the U.S. government's official web portal to all federal, state and local government web resources and services.